+07,Max TemperatureF,Mean TemperatureF,Min TemperatureF,Max Dew PointF,MeanDew PointF,Min DewpointF,Max Humidity, Mean Humidity, Min Humidity, Max Sea Level PressureIn, Mean Sea Level PressureIn, Min Sea Level PressureIn, Max VisibilityMiles, Mean VisibilityMiles, Min VisibilityMiles, Max Wind SpeedMPH, Mean Wind SpeedMPH, Max Gust SpeedMPH,PrecipitationIn, CloudCover, Events, WindDirDegrees
2012-10-1,89,79,70,75,71,70,94,70,47,29.92,29.87,29.77,3,2,0,5,2,,0.00,3,Fog,169
2012-10-2,91,80,71,73,72,69,96,71,42,29.92,29.86,29.78,3,2,0,5,1,,0.00,2,Fog,40
2012-10-3,91,80,73,73,72,72,89,77,54,29.84,29.79,29.74,6,2,1,4,1,,0.00,5,,166
2012-10-4,91,80,72,77,75,72,95,78,62,29.77,29.73,29.65,7,5,0,7,3,,0.00,3,Fog-Rain-Thunderstorm,275
2012-10-5,88,80,74,75,74,73,94,78,59,29.83,29.78,29.74,6,4,0,9,3,,0.00,5,Fog,272
2012-10-6,87,80,75,75,73,72,89,79,63,29.92,29.85,29.77,6,3,1,5,3,,0.00,7,Rain,123
2012-10-7,87,80,73,73,71,70,92,68,50,29.89,29.83,29.74,3,3,0,5,2,,0.00,5,Fog,214
2012-10-8,83,76,69,73,69,68,94,79,61,29.90,29.85,29.77,2,2,1,4,3,,0.00,7,Rain,272
2012-10-9,85,80,74,73,71,69,94,74,51,29.89,29.84,29.77,5,3,1,6,2,,0.00,4,,154
2012-10-10,90,81,72,74,71,68,94,66,41,29.93,29.87,29.77,5,4,1,6,2,,0.00,3,Rain,167
2012-10-11,91,80,70,74,71,69,94,70,50,29.92,29.86,29.74,3,2,0,5,2,,0.00,1,Fog,280
2012-10-12,91,82,72,74,71,70,96,70,43,29.92,29.84,29.74,3,2,0,5,2,,0.00,2,Fog,100
2012-10-13,93,81,71,76,72,70,91,71,44,29.89,29.83,29.77,3,2,0,6,2,,0.00,1,Fog,106
2012-10-14,94,83,73,74,72,70,94,66,41,29.89,29.82,29.71,3,2,0,7,1,,0.00,1,Fog,189
2012-10-15,93,82,71,72,71,70,91,66,40,29.95,29.89,29.86,4,2,1,7,2,,0.00,2,,152
2012-10-16,94,80,70,73,70,68,88,62,38,29.95,29.89,29.80,4,3,1,5,2,,0.00,2,,7
2012-10-17,93,80,69,72,70,68,90,65,43,29.95,29.87,29.77,3,2,0,7,2,,0.00,1,Fog,173
2012-10-18,87,79,72,73,70,68,89,70,46,29.98,29.92,29.83,4,3,1,5,2,,0.00,2,,209
2012-10-19,92,79,69,75,70,68,94,70,44,29.95,29.89,29.85,5,3,1,7,2,,0.00,2,,307
2012-10-20,92,80,71,73,72,71,94,68,44,29.95,29.90,29.84,4,3,0,5,1,,0.00,2,Fog,118
2012-10-21,91,80,70,73,71,68,96,68,42,29.95,29.89,29.77,4,3,0,5,1,,0.00,2,Fog,210
2012-10-22,92,80,72,73,72,70,94,74,52,29.95,29.90,29.84,6,4,1,6,1,,0.00,2,,136
2012-10-23,91,80,71,72,68,66,94,62,38,29.93,29.87,29.77,7,5,2,7,2,,0.00,1,,108
2012-10-24,93,80,68,71,68,66,91,66,46,29.90,29.84,29.77,7,5,2,8,3,,0.00,2,,218
2012-10-25,93,82,71,72,70,68,91,65,38,29.89,29.83,29.71,9,5,2,7,2,,0.00,2,,168
2012-10-26,91,80,69,72,69,68,94,68,41,29.89,29.82,29.71,7,5,2,7,2,,0.00,3,,234
2012-10-27,92,81,71,72,69,68,91,65,38,29.86,29.79,29.71,7,5,2,7,2,,0.00,2,,32
2012-10-28,93,82,70,72,69,66,94,63,41,29.84,29.79,29.71,8,6,5,8,5,,0.00,1,,330
2012-10-29,95,83,71,74,71,68,89,62,40,29.86,29.77,29.68,7,6,6,7,2,,0.00,1,,346
2012-10-30,95,84,72,73,72,70,90,63,36,29.83,29.78,29.71,9,6,4,9,3,,0.00,3,,348
2012-10-31,90,82,74,72,68,64,89,60,40,29.95,29.88,29.80,11,7,6,7,2,,0.00,4,,77